Location: Jabiru
(12.6667°S, 132.8333°E)
Time: 07:31:43
(UTC+09:30)

NOAA 19 - Visible Passes

Search period start: 18 November 2019 00:00
Search period end: 28 November 2019 00:00
Orbit: 841 x 861 km, 99.2° (Epoch: 16 November)

Date Brightness Start Highest point End Pass type
(mag) Time Alt. Az. Time Alt. Az. Time Alt. Az.
18 Nov 6.9 05:12:52 10° NE 05:17:58 39° ESE 05:23:04 10° S visible
19 Nov 7.4 05:01:41 10° NE 05:06:21 29° ESE 05:11:01 10° SSE visible
19 Nov 8.7 19:21:56 10° SW 19:23:59 12° WSW 19:26:02 10° W visible
20 Nov 7.9 04:50:41 10° ENE 04:54:45 21° ESE 04:58:49 10° SSE visible
20 Nov 8.4 19:08:59 10° SSW 19:12:24 17° WSW 19:15:48 10° WNW visible
21 Nov 8.3 04:40:00 10° ENE 04:43:09 16° ESE 04:46:19 10° SE visible
22 Nov 8.6 04:30:07 10° E 04:31:35 11° ESE 04:33:03 10° SE visible
25 Nov 5.9 05:31:22 10° NNE 05:36:48 61° ESE 05:42:14 10° S visible
26 Nov 6.6 05:19:57 10° NNE 05:25:10 45° ESE 05:30:24 10° S visible
27 Nov 7.2 05:08:39 10° NE 05:13:32 33° ESE 05:18:25 10° SSE visible
27 Nov 8.9 19:30:48 10° WSW 19:31:08 10° WSW 19:31:28 10° WSW visible
